| time (UTC) | temp C | wind direction | speed KPH | gust KPH | rain 1hr cm | rain 24hr cm | rain mn cm | humidity % | barometer mb |
| 20260906052507 | 21 | 179 | 3.2 | 6.4 | 0.00 | 0.00 | 0.00 | 73 | 1020.2 |
| 20260906052047 | 21 | 229 | 0.0 | 4.8 | 0.00 | 0.00 | 0.00 | 73 | 1020.3 |
| 20260906051529 | 21 | 240 | 0.0 | 4.8 | 0.00 | 0.00 | 0.00 | 73 | 1020.2 |
| 20260906051057 | 21 | 254 | 0.0 | 3.2 | 0.00 | 0.00 | 0.00 | 74 | 1020.2 |
| 20260906050534 | 20 | 108 | 0.0 | 3.2 | 0.00 | 0.00 | 0.00 | 74 | 1020.1 |
| 20260906050122 | 20 | 179 | 0.0 | 6.4 | 0.00 | 0.00 | 0.00 | 75 | 1020.1 |
| 20260906045541 | 20 | 260 | 0.0 | 6.4 | 0.00 | 0.00 | 0.00 | 75 | 1020.0 |
| 20260906045003 | 20 | 329 | 1.6 | 4.8 | 0.00 | 0.00 | 0.00 | 75 | 1020.0 |
| 20260906044540 | 21 | 211 | 1.6 | 4.8 | 0.00 | 0.00 | 0.00 | 73 | 1019.9 |
| 20260906044008 | 21 | 44 | 0.0 | 6.4 | 0.00 | 0.00 | 0.00 | 72 | 1019.8 |
| 20260906043546 | 21 | 237 | 0.0 | 6.4 | 0.00 | 0.00 | 0.00 | 71 | 1019.8 |
| 20260906043024 | 21 | 240 | 3.2 | 6.4 | 0.00 | 0.00 | 0.00 | 70 | 1019.6 |
| 20260906042550 | 21 | 254 | 3.2 | 6.4 | 0.00 | 0.00 | 0.00 | 71 | 1019.5 |
| 20260906042023 | 21 | 207 | 0.0 | 12.9 | 0.00 | 0.00 | 0.00 | 73 | 1019.5 |
| 20260906041556 | 21 | 224 | 4.8 | 12.9 | 0.00 | 0.00 | 0.00 | 73 | 1019.5 |
| 20260906041032 | 21 | 255 | 8.0 | 12.9 | 0.00 | 0.00 | 0.00 | 73 | 1019.3 |
| 20260906040559 | 21 | 240 | 8.0 | 12.9 | 0.00 | 0.00 | 0.00 | 74 | 1019.3 |
| 20260906040042 | 21 | 240 | 6.4 | 11.3 | 0.00 | 0.00 | 0.00 | 74 | 1019.4 |
| 20260906035503 | 21 | 217 | 6.4 | 12.9 | 0.00 | 0.00 | 0.00 | 75 | 1019.4 |
| 20260906035044 | 21 | 228 | 8.0 | 12.9 | 0.00 | 0.00 | 0.00 | 76 | 1019.4 |
| 20260906034521 | 21 | 255 | 6.4 | 11.3 | 0.00 | 0.00 | 0.00 | 76 | 1019.3 |
| 20260906034049 | 21 | 231 | 6.4 | 11.3 | 0.00 | 0.00 | 0.00 | 77 | 1019.2 |
| 20260906033527 | 21 | 209 | 6.4 | 11.3 | 0.00 | 0.00 | 0.00 | 77 | 1019.2 |
| 20260906033106 | 21 | 288 | 6.4 | 11.3 | 0.00 | 0.00 | 0.00 | 78 | 1019.3 |
| 20260906032535 | 20 | 167 | 6.4 | 9.7 | 0.00 | 0.00 | 0.00 | 80 | 1019.2 |
| 20260906032058 | 20 | 240 | 6.4 | 9.7 | 0.00 | 0.00 | 0.00 | 81 | 1019.2 |
| 20260906031535 | 21 | 202 | 6.4 | 9.7 | 0.00 | 0.00 | 0.00 | 82 | 1019.2 |
| 20260906031002 | 21 | 276 | 4.8 | 9.7 | 0.00 | 0.00 | 0.00 | 82 | 1019.2 |
| 20260906030539 | 21 | 239 | 4.8 | 9.7 | 0.00 | 0.00 | 0.00 | 83 | 1019.1 |
| 20260906030006 | 20 | 216 | 3.2 | 8.0 | 0.00 | 0.00 | 0.00 | 84 | 1019.1 |
| 20260906025551 | 20 | 134 | 3.2 | 8.0 | 0.00 | 0.00 | 0.00 | 84 | 1019.2 |
| 20260906025030 | 20 | 155 | 0.0 | 1.6 | 0.00 | 0.00 | 0.00 | 85 | 1019.2 |
| 20260906024616 | 20 | 155 | 0.0 | 3.2 | 0.00 | 0.00 | 0.00 | 85 | 1019.2 |
| 20260906024023 | 21 | 65 | 0.0 | 3.2 | 0.00 | 0.00 | 0.00 | 85 | 1019.2 |
| 20260906023555 | 21 | 122 | 0.0 | 0.0 | 0.00 | 0.00 | 0.00 | 85 | 1019.1 |
| 20260906023031 | 21 | 108 | 0.0 | 1.6 | 0.00 | 0.00 | 0.00 | 86 | 1019.2 |
| 20260906022600 | 21 | 233 | 0.0 | 3.2 | 0.00 | 0.00 | 0.00 | 86 | 1019.2 |
| 20260906022041 | 21 | 248 | 0.0 | 11.3 | 0.00 | 0.00 | 0.00 | 86 | 1019.0 |
| 20260906021504 | 20 | 199 | 3.2 | 11.3 | 0.00 | 0.00 | 0.00 | 86 | 1019.1 |
| 20260906021049 | 20 | 255 | 6.4 | 11.3 | 0.00 | 0.00 | 0.00 | 86 | 1019.0 |
| 20260906020523 | 20 | 213 | 8.0 | 11.3 | 0.00 | 0.00 | 0.00 | 87 | 1018.9 |
| 20260906020054 | 21 | 212 | 8.0 | 12.9 | 0.00 | 0.00 | 0.00 | 86 | 1018.9 |
| 20260906015528 | 21 | 212 | 8.0 | 12.9 | 0.00 | 0.00 | 0.00 | 87 | 1018.9 |
| 20260906015053 | 21 | 155 | 6.4 | 11.3 | 0.00 | 0.00 | 0.00 | 87 | 1018.8 |
| 20260906014543 | 21 | 242 | 6.4 | 11.3 | 0.00 | 0.00 | 0.00 | 87 | 1018.9 |
| 20260906014100 | 21 | 252 | 6.4 | 11.3 | 0.00 | 0.00 | 0.00 | 87 | 1019.0 |
| 20260906013536 | 21 | 212 | 6.4 | 14.5 | 0.00 | 0.00 | 0.00 | 87 | 1019.0 |
| 20260906013005 | 21 | 241 | 8.0 | 14.5 | 0.00 | 0.00 | 0.00 | 86 | 1019.0 |
| 20260906012545 | 21 | 231 | 8.0 | 12.9 | 0.00 | 0.00 | 0.00 | 86 | 1019.0 |
| 20260906012024 | 21 | 224 | 6.4 | 11.3 | 0.00 | 0.00 | 0.00 | 86 | 1019.0 |
| 20260906011549 | 21 | 212 | 6.4 | 11.3 | 0.00 | 0.00 | 0.00 | 86 | 1019.0 |
| 20260906011021 | 21 | 160 | 4.8 | 11.3 | 0.00 | 0.00 | 0.00 | 86 | 1019.1 |
| 20260906010554 | 21 | 226 | 4.8 | 11.3 | 0.00 | 0.00 | 0.00 | 86 | 1019.0 |
| 20260906010031 | 21 | 233 | 6.4 | 11.3 | 0.00 | 0.00 | 0.00 | 86 | 1019.1 |
| 20260906005559 | 21 | 226 | 6.4 | 11.3 | 0.00 | 0.00 | 0.00 | 86 | 1019.0 |
| 20260906005041 | 21 | 32 | 4.8 | 11.3 | 0.00 | 0.00 | 0.00 | 86 | 1019.1 |
| 20260906004607 | 21 | 229 | 6.4 | 11.3 | 0.00 | 0.00 | 0.00 | 86 | 1019.1 |
| 20260906004038 | 21 | 186 | 8.0 | 12.9 | 0.00 | 0.00 | 0.00 | 85 | 1019.0 |
| 20260906003506 | 22 | 210 | 6.4 | 11.3 | 0.00 | 0.00 | 0.00 | 84 | 1019.0 |
| 20260906003050 | 22 | 224 | 3.2 | 11.3 | 0.00 | 0.00 | 0.00 | 84 | 1019.0 |
| 20260906002525 | 22 | 231 | 6.4 | 9.7 | 0.00 | 0.00 | 0.00 | 85 | 1019.1 |
| 20260906002052 | 22 | 247 | 4.8 | 8.0 | 0.00 | 0.00 | 0.00 | 85 | 1019.0 |
| 20260906001531 | 22 | 188 | 4.8 | 8.0 | 0.00 | 0.00 | 0.00 | 85 | 1019.1 |
| 20260906001101 | 22 | 231 | 4.8 | 8.0 | 0.00 | 0.00 | 0.00 | 86 | 1019.0 |
| 20260906000538 | 22 | 263 | 3.2 | 9.7 | 0.00 | 0.00 | 0.00 | 86 | 1019.1 |
| 20260906000120 | 22 | 230 | 4.8 | 9.7 | 0.00 | 0.00 | 0.00 | 85 | 1019.1 |
| 20260905235546 | 22 | 198 | 3.2 | 6.4 | 0.00 | 0.00 | 0.00 | 86 | 1019.1 |
| 20260905235025 | 22 | 243 | 3.2 | 6.4 | 0.00 | 0.00 | 0.00 | 85 | 1019.2 |
| 20260905234557 | 22 | 245 | 3.2 | 6.4 | 0.00 | 0.00 | 0.00 | 85 | 1019.0 |
| 20260905234024 | 22 | 229 | 1.6 | 6.4 | 0.00 | 0.00 | 0.00 | 86 | 1019.0 |
| 20260905233554 | 22 | 228 | 1.6 | 8.0 | 0.00 | 0.00 | 0.00 | 86 | 1019.0 |
| 20260905233034 | 22 | 231 | 3.2 | 8.0 | 0.00 | 0.00 | 0.00 | 87 | 1019.0 |
| 20260905232604 | 21 | 245 | 3.2 | 9.7 | 0.00 | 0.00 | 0.00 | 86 | 1019.0 |
| 20260905232038 | 21 | 258 | 4.8 | 9.7 | 0.00 | 0.00 | 0.00 | 86 | 1019.0 |
| 20260905231505 | 21 | 215 | 4.8 | 9.7 | 0.00 | 0.00 | 0.00 | 86 | 1019.0 |
| 20260905231042 | 22 | 252 | 4.8 | 8.0 | 0.00 | 0.00 | 0.00 | 85 | 1019.1 |
| 20260905230524 | 22 | 231 | 3.2 | 9.7 | 0.00 | 0.00 | 0.00 | 87 | 1019.1 |
| 20260905230115 | 21 | 238 | 3.2 | 11.3 | 0.00 | 0.00 | 0.00 | 87 | 1019.1 |
| 20260905225522 | 21 | 245 | 6.4 | 11.3 | 0.00 | 0.00 | 0.00 | 86 | 1019.0 |
| 20260905225058 | 21 | 255 | 6.4 | 11.3 | 0.00 | 0.00 | 0.00 | 86 | 1019.1 |
| 20260905224532 | 21 | 237 | 6.4 | 11.3 | 0.00 | 0.00 | 0.00 | 87 | 1019.1 |
| 20260905224105 | 21 | 252 | 6.4 | 11.3 | 0.00 | 0.00 | 0.00 | 87 | 1019.0 |
| 20260905223540 | 22 | 226 | 4.8 | 11.3 | 0.00 | 0.00 | 0.00 | 87 | 1019.1 |
| 20260905223008 | 22 | 219 | 6.4 | 11.3 | 0.00 | 0.00 | 0.00 | 87 | 1019.1 |
| 20260905222546 | 22 | 254 | 4.8 | 9.7 | 0.00 | 0.00 | 0.00 | 87 | 1019.1 |
| 20260905222010 | 22 | 212 | 1.6 | 11.3 | 0.00 | 0.00 | 0.00 | 87 | 1019.1 |
| 20260905221556 | 22 | 237 | 3.2 | 11.3 | 0.00 | 0.00 | 0.00 | 87 | 1019.1 |
| 20260905221027 | 22 | 236 | 8.0 | 11.3 | 0.00 | 0.00 | 0.00 | 87 | 1019.1 |
| 20260905220604 | 22 | 219 | 4.8 | 9.7 | 0.00 | 0.00 | 0.00 | 87 | 1019.1 |
| 20260905220038 | 22 | 140 | 4.8 | 8.0 | 0.00 | 0.00 | 0.00 | 87 | 1019.1 |
| 20260905215600 | 22 | 218 | 3.2 | 6.4 | 0.00 | 0.00 | 0.00 | 87 | 1019.0 |
| 20260905215031 | 22 | 129 | 1.6 | 8.0 | 0.00 | 0.00 | 0.00 | 88 | 1019.0 |
| 20260905214501 | 22 | 233 | 3.2 | 9.7 | 0.00 | 0.00 | 0.00 | 88 | 1019.1 |
| 20260905214039 | 22 | 219 | 4.8 | 9.7 | 0.00 | 0.00 | 0.00 | 87 | 1019.0 |
| 20260905213508 | 22 | 230 | 3.2 | 6.4 | 0.00 | 0.00 | 0.00 | 87 | 1019.0 |
| 20260905213047 | 22 | 256 | 3.2 | 8.0 | 0.00 | 0.00 | 0.00 | 87 | 1018.9 |
| 20260905212512 | 22 | 212 | 3.2 | 8.0 | 0.00 | 0.00 | 0.00 | 87 | 1018.8 |
| 20260905212052 | 22 | 255 | 3.2 | 8.0 | 0.00 | 0.00 | 0.00 | 86 | 1019.0 |
| 20260905211531 | 22 | 236 | 4.8 | 8.0 | 0.00 | 0.00 | 0.00 | 86 | 1019.0 |
| 20260905211059 | 22 | 180 | 3.2 | 9.7 | 0.00 | 0.00 | 0.00 | 85 | 1018.9 |
| 20260905210535 | 22 | 177 | 4.8 | 9.7 | 0.00 | 0.00 | 0.00 | 86 | 1018.8 |
| 20260905210008 | 23 | 206 | 3.2 | 6.4 | 0.00 | 0.00 | 0.00 | 87 | 1018.9 |
| 20260905205541 | 23 | 251 | 3.2 | 6.4 | 0.00 | 0.00 | 0.00 | 87 | 1018.8 |
| 20260905205019 | 23 | 112 | 0.0 | 3.2 | 0.00 | 0.00 | 0.00 | 87 | 1018.7 |
| 20260905204547 | 23 | 232 | 1.6 | 6.4 | 0.00 | 0.00 | 0.00 | 87 | 1018.7 |
| 20260905204027 | 23 | 220 | 1.6 | 6.4 | 0.00 | 0.00 | 0.00 | 87 | 1018.6 |
| 20260905203557 | 23 | 259 | 4.8 | 8.0 | 0.00 | 0.00 | 0.00 | 87 | 1018.7 |
| 20260905203028 | 23 | 211 | 3.2 | 8.0 | 0.00 | 0.00 | 0.00 | 86 | 1018.6 |
| 20260905202559 | 23 | 227 | 3.2 | 6.4 | 0.00 | 0.00 | 0.00 | 86 | 1018.6 |
| 20260905202035 | 23 | 212 | 3.2 | 8.0 | 0.00 | 0.00 | 0.00 | 86 | 1018.6 |
| 20260905201609 | 23 | 198 | 4.8 | 8.0 | 0.00 | 0.00 | 0.00 | 86 | 1018.6 |
| 20260905201043 | 23 | 236 | 4.8 | 8.0 | 0.00 | 0.00 | 0.00 | 85 | 1018.6 |
| 20260905200523 | 24 | 217 | 4.8 | 8.0 | 0.00 | 0.00 | 0.00 | 85 | 1018.5 |
| 20260905200103 | 25 | 215 | 4.8 | 8.0 | 0.00 | 0.00 | 0.00 | 84 | 1018.5 |
| 20260905195528 | 25 | 200 | 1.6 | 4.8 | 0.00 | 0.00 | 0.00 | 83 | 1018.5 |
| 20260905195101 | 25 | 235 | 1.6 | 4.8 | 0.00 | 0.00 | 0.00 | 83 | 1018.6 |
| 20260905194537 | 25 | 250 | 1.6 | 4.8 | 0.00 | 0.00 | 0.00 | 83 | 1018.5 |
| 20260905194004 | 25 | 260 | 1.6 | 4.8 | 0.00 | 0.00 | 0.00 | 83 | 1018.5 |
| 20260905193543 | 25 | 232 | 3.2 | 4.8 | 0.00 | 0.00 | 0.00 | 82 | 1018.4 |
| 20260905193023 | 25 | 236 | 1.6 | 4.8 | 0.00 | 0.00 | 0.00 | 82 | 1018.5 |
| 20260905192551 | 25 | 257 | 1.6 | 6.4 | 0.00 | 0.00 | 0.00 | 82 | 1018.6 |
| 20260905192032 | 25 | 204 | 1.6 | 6.4 | 0.00 | 0.00 | 0.00 | 82 | 1018.4 |
| 20260905191601 | 25 | 240 | 3.2 | 8.0 | 0.00 | 0.00 | 0.00 | 83 | 1018.5 |
| 20260905191040 | 25 | 179 | 4.8 | 6.4 | 0.00 | 0.00 | 0.00 | 83 | 1018.6 |
| 20260905190501 | 25 | 217 | 0.0 | 1.6 | 0.00 | 0.00 | 0.00 | 83 | 1018.5 |
| 20260905190041 | 25 | 108 | 0.0 | 1.6 | 0.00 | 0.00 | 0.00 | 83 | 1018.4 |
| 20260905185507 | 25 | 108 | 0.0 | 0.0 | 0.00 | 0.00 | 0.00 | 83 | 1018.5 |
| 20260905185052 | 26 | 108 | 0.0 | 0.0 | 0.00 | 0.00 | 0.00 | 82 | 1018.5 |
| 20260905184532 | 26 | 108 | 0.0 | 0.0 | 0.00 | 0.00 | 0.00 | 82 | 1018.5 |
| 20260905184103 | 26 | 109 | 0.0 | 0.0 | 0.00 | 0.00 | 0.00 | 81 | 1018.5 |
| 20260905183540 | 26 | 108 | 0.0 | 0.0 | 0.00 | 0.00 | 0.00 | 81 | 1018.5 |
| 20260905183019 | 26 | 108 | 0.0 | 0.0 | 0.00 | 0.00 | 0.00 | 80 | 1018.5 |
| 20260905182548 | 26 | 108 | 0.0 | 0.0 | 0.00 | 0.00 | 0.00 | 80 | 1018.4 |
| 20260905182024 | 26 | 108 | 0.0 | 0.0 | 0.00 | 0.00 | 0.00 | 80 | 1018.3 |
| 20260905181555 | 27 | 108 | 0.0 | 0.0 | 0.00 | 0.00 | 0.00 | 80 | 1018.3 |
| 20260905181033 | 27 | 108 | 0.0 | 0.0 | 0.00 | 0.00 | 0.00 | 79 | 1018.2 |
| 20260905180502 | 27 | 108 | 0.0 | 0.0 | 0.00 | 0.00 | 0.00 | 79 | 1018.2 |
| 20260905180045 | 27 | 108 | 0.0 | 0.0 | 0.00 | 0.00 | 0.00 | 78 | 1018.1 |
| 20260905175522 | 27 | 108 | 0.0 | 0.0 | 0.00 | 0.00 | 0.00 | 77 | 1017.9 |
| 20260905175050 | 27 | 108 | 0.0 | 0.0 | 0.00 | 0.00 | 0.00 | 77 | 1017.8 |
| 20260905174533 | 27 | 108 | 0.0 | 1.6 | 0.00 | 0.00 | 0.00 | 76 | 1017.7 |
| 20260905174104 | 27 | 108 | 0.0 | 1.6 | 0.00 | 0.00 | 0.00 | 76 | 1017.7 |
| 20260905173538 | 28 | 108 | 0.0 | 1.6 | 0.00 | 0.00 | 0.00 | 75 | 1017.7 |
| 20260905173006 | 28 | 108 | 0.0 | 1.6 | 0.00 | 0.00 | 0.00 | 73 | 1017.6 |
| 20260905172546 | 29 | 108 | 0.0 | 1.6 | 0.00 | 0.00 | 0.00 | 72 | 1017.6 |
| 20260905172010 | 30 | 108 | 0.0 | 1.6 | 0.00 | 0.00 | 0.00 | 70 | 1017.6 |
| 20260905171554 | 30 | 108 | 0.0 | 1.6 | 0.00 | 0.00 | 0.00 | 70 | 1017.8 |
| 20260905171023 | 30 | 108 | 0.0 | 1.6 | 0.00 | 0.00 | 0.00 | 68 | 1017.6 |
| 20260905170557 | 31 | 108 | 0.0 | 3.2 | 0.00 | 0.00 | 0.00 | 67 | 1017.7 |
| 20260905170031 | 32 | 108 | 1.6 | 3.2 | 0.00 | 0.00 | 0.00 | 65 | 1017.6 |
| 20260905165602 | 32 | 108 | 0.0 | 1.6 | 0.00 | 0.00 | 0.00 | 64 | 1017.6 |
| 20260905165036 | 32 | 108 | 0.0 | 0.0 | 0.00 | 0.00 | 0.00 | 63 | 1017.7 |
| 20260905164504 | 32 | 108 | 0.0 | 1.6 | 0.00 | 0.00 | 0.00 | 62 | 1017.6 |
| 20260905164043 | 32 | 108 | 0.0 | 1.6 | 0.00 | 0.00 | 0.00 | 61 | 1017.6 |
| 20260905163523 | 33 | 39 | 0.0 | 1.6 | 0.00 | 0.00 | 0.00 | 62 | 1017.6 |
| 20260905163047 | 33 | 39 | 0.0 | 3.2 | 0.00 | 0.00 | 0.00 | 61 | 1017.6 |
| 20260905162523 | 33 | 40 | 0.0 | 4.8 | 0.00 | 0.00 | 0.00 | 61 | 1017.7 |
| 20260905162051 | 33 | 38 | 0.0 | 1.6 | 0.00 | 0.00 | 0.00 | 62 | 1017.6 |
| 20260905161525 | 33 | 38 | 0.0 | 3.2 | 0.00 | 0.00 | 0.00 | 61 | 1017.4 |
| 20260905161055 | 33 | 37 | 0.0 | 4.8 | 0.00 | 0.00 | 0.00 | 61 | 1017.4 |
| 20260905160533 | 33 | 36 | 0.0 | 4.8 | 0.00 | 0.00 | 0.00 | 60 | 1017.5 |
| 20260905160059 | 33 | 36 | 0.0 | 3.2 | 0.00 | 0.00 | 0.00 | 60 | 1017.4 |
| 20260905155536 | 33 | 35 | 0.0 | 4.8 | 0.00 | 0.00 | 0.00 | 60 | 1017.3 |
| 20260905155103 | 33 | 36 | 0.0 | 6.4 | 0.00 | 0.00 | 0.00 | 60 | 1017.4 |
| 20260905154552 | 33 | 38 | 1.6 | 6.4 | 0.00 | 0.00 | 0.00 | 60 | 1017.4 |
| 20260905154005 | 33 | 38 | 0.0 | 4.8 | 0.00 | 0.00 | 0.00 | 60 | 1017.6 |
| 20260905153550 | 33 | 38 | 1.6 | 4.8 | 0.00 | 0.00 | 0.00 | 60 | 1017.3 |
| 20260905153025 | 33 | 37 | 0.0 | 4.8 | 0.00 | 0.00 | 0.00 | 61 | 1017.2 |
| 20260905152553 | 33 | 36 | 0.0 | 8.0 | 0.00 | 0.00 | 0.00 | 61 | 1017.3 |
| 20260905152033 | 33 | 37 | 3.2 | 8.0 | 0.00 | 0.00 | 0.00 | 61 | 1017.3 |
| 20260905151559 | 33 | 58 | 1.6 | 6.4 | 0.00 | 0.00 | 0.00 | 61 | 1017.4 |
| 20260905151039 | 34 | 75 | 1.6 | 4.8 | 0.00 | 0.00 | 0.00 | 62 | 1017.3 |
| 20260905150505 | 33 | 75 | 0.0 | 4.8 | 0.00 | 0.00 | 0.00 | 64 | 1017.2 |
| 20260905150041 | 33 | 76 | 0.0 | 6.4 | 0.00 | 0.00 | 0.00 | 64 | 1017.3 |
| 20260905145527 | 33 | 62 | 1.6 | 8.0 | 0.00 | 0.00 | 0.00 | 64 | 1017.3 |
| 20260905145049 | 33 | 63 | 1.6 | 8.0 | 0.00 | 0.00 | 0.00 | 66 | 1017.4 |
| 20260905144529 | 33 | 44 | 4.8 | 8.0 | 0.00 | 0.00 | 0.00 | 65 | 1017.3 |
| 20260905144059 | 33 | 50 | 3.2 | 9.7 | 0.00 | 0.00 | 0.00 | 64 | 1017.2 |
| 20260905143537 | 34 | 65 | 1.6 | 9.7 | 0.00 | 0.00 | 0.00 | 65 | 1017.2 |
| 20260905143002 | 34 | 41 | 0.0 | 8.0 | 0.00 | 0.00 | 0.00 | 65 | 1017.2 |
| 20260905142542 | 34 | 42 | 1.6 | 8.0 | 0.00 | 0.00 | 0.00 | 64 | 1017.2 |
| 20260905142009 | 34 | 65 | 0.0 | 6.4 | 0.00 | 0.00 | 0.00 | 64 | 1017.2 |
| 20260905141547 | 34 | 73 | 0.0 | 4.8 | 0.00 | 0.00 | 0.00 | 63 | 1017.0 |
| 20260905141009 | 34 | 73 | 0.0 | 3.2 | 0.00 | 0.00 | 0.00 | 63 | 1017.1 |
| 20260905140543 | 34 | 100 | 0.0 | 3.2 | 0.00 | 0.00 | 0.00 | 64 | 1017.2 |
| 20260905140005 | 34 | 99 | 0.0 | 3.2 | 0.00 | 0.00 | 0.00 | 63 | 1017.2 |
| 20260905135551 | 34 | 108 | 0.0 | 3.2 | 0.00 | 0.00 | 0.00 | 62 | 1017.2 |
| 20260905135013 | 33 | 99 | 0.0 | 4.8 | 0.00 | 0.00 | 0.00 | 62 | 1017.3 |
| 20260905134555 | 33 | 108 | 1.6 | 6.4 | 0.00 | 0.00 | 0.00 | 63 | 1017.2 |
| 20260905134028 | 33 | 108 | 1.6 | 6.4 | 0.00 | 0.00 | 0.00 | 63 | 1017.2 |
| 20260905133600 | 33 | 108 | 1.6 | 6.4 | 0.00 | 0.00 | 0.00 | 62 | 1017.1 |
| 20260905133025 | 33 | 65 | 1.6 | 8.0 | 0.00 | 0.00 | 0.00 | 62 | 1017.1 |
| 20260905132603 | 33 | 99 | 1.6 | 14.5 | 0.00 | 0.00 | 0.00 | 62 | 1017.1 |
| 20260905132040 | 33 | 132 | 3.2 | 14.5 | 0.00 | 0.00 | 0.00 | 61 | 1017.0 |
| 20260905131503 | 33 | 110 | 3.2 | 14.5 | 0.00 | 0.00 | 0.00 | 62 | 1017.0 |
| 20260905131043 | 33 | 99 | 3.2 | 14.5 | 0.00 | 0.00 | 0.00 | 60 | 1017.0 |
| 20260905130527 | 33 | 99 | 4.8 | 14.5 | 0.00 | 0.00 | 0.00 | 60 | 1017.1 |
| 20260905130050 | 33 | 108 | 1.6 | 8.0 | 0.00 | 0.00 | 0.00 | 61 | 1017.1 |
| 20260905125529 | 33 | 102 | 1.6 | 8.0 | 0.00 | 0.00 | 0.00 | 61 | 1017.2 |
| 20260905125057 | 33 | 108 | 0.0 | 8.0 | 0.00 | 0.00 | 0.00 | 62 | 1017.2 |
| 20260905124537 | 33 | 99 | 1.6 | 8.0 | 0.00 | 0.00 | 0.00 | 62 | 1017.2 |
| 20260905124004 | 33 | 98 | 1.6 | 8.0 | 0.00 | 0.00 | 0.00 | 62 | 1017.2 |
| 20260905123543 | 33 | 99 | 1.6 | 9.7 | 0.00 | 0.00 | 0.00 | 61 | 1017.3 |
| 20260905123018 | 33 | 98 | 1.6 | 11.3 | 0.00 | 0.00 | 0.00 | 60 | 1017.3 |
| 20260905122549 | 33 | 105 | 3.2 | 8.0 | 0.00 | 0.00 | 0.00 | 62 | 1017.4 |
| 20260905122025 | 33 | 99 | 1.6 | 16.1 | 0.00 | 0.00 | 0.00 | 64 | 1017.4 |
| 20260905121601 | 33 | 108 | 3.2 | 16.1 | 0.00 | 0.00 | 0.00 | 63 | 1017.5 |
| 20260905121029 | 32 | 116 | 1.6 | 14.5 | 0.00 | 0.00 | 0.00 | 62 | 1017.4 |
| 20260905120601 | 32 | 98 | 1.6 | 16.1 | 0.00 | 0.00 | 0.00 | 63 | 1017.5 |
| 20260905120034 | 33 | 106 | 3.2 | 17.7 | 0.00 | 0.00 | 0.00 | 63 | 1017.4 |
| 20260905115501 | 33 | 321 | 3.2 | 11.3 | 0.00 | 0.00 | 0.00 | 63 | 1017.7 |
| 20260905115043 | 33 | 89 | 1.6 | 14.5 | 0.00 | 0.00 | 0.00 | 64 | 1017.6 |
| 20260905114502 | 33 | 108 | 1.6 | 8.0 | 0.00 | 0.00 | 0.00 | 64 | 1017.6 |
| 20260905114041 | 33 | 114 | 1.6 | 9.7 | 0.00 | 0.00 | 0.00 | 64 | 1017.7 |
| 20260905113508 | 33 | 108 | 1.6 | 8.0 | 0.00 | 0.00 | 0.00 | 63 | 1017.8 |
| 20260905113102 | 33 | 134 | 0.0 | 9.7 | 0.00 | 0.00 | 0.00 | 64 | 1017.7 |
| 20260905112521 | 33 | 46 | 3.2 | 9.7 | 0.00 | 0.00 | 0.00 | 63 | 1017.8 |
| 20260905112052 | 33 | 108 | 0.0 | 11.3 | 0.00 | 0.00 | 0.00 | 64 | 1017.6 |
| 20260905111522 | 33 | 16 | 1.6 | 11.3 | 0.00 | 0.00 | 0.00 | 63 | 1017.9 |
| 20260905111101 | 33 | 98 | 0.0 | 8.0 | 0.00 | 0.00 | 0.00 | 61 | 1017.8 |
| 20260905110540 | 33 | 73 | 0.0 | 8.0 | 0.00 | 0.00 | 0.00 | 60 | 1017.8 |
| 20260905110001 | 33 | 108 | 0.0 | 4.8 | 0.00 | 0.00 | 0.00 | 58 | 1017.8 |
| 20260905105541 | 33 | 98 | 1.6 | 4.8 | 0.00 | 0.00 | 0.00 | 57 | 1017.8 |
| 20260905105021 | 33 | 105 | 0.0 | 6.4 | 0.00 | 0.00 | 0.00 | 60 | 1017.9 |
| 20260905104548 | 32 | 115 | 0.0 | 6.4 | 0.00 | 0.00 | 0.00 | 58 | 1017.9 |
| 20260905104021 | 32 | 118 | 0.0 | 11.3 | 0.00 | 0.00 | 0.00 | 60 | 1017.9 |
| 20260905103553 | 32 | 108 | 1.6 | 11.3 | 0.00 | 0.00 | 0.00 | 58 | 1017.9 |
| 20260905103033 | 32 | 103 | 1.6 | 8.0 | 0.00 | 0.00 | 0.00 | 62 | 1018.1 |
| 20260905102557 | 32 | 108 | 3.2 | 8.0 | 0.00 | 0.00 | 0.00 | 60 | 1018.0 |
| 20260905102033 | 32 | 105 | 0.0 | 8.0 | 0.00 | 0.00 | 0.00 | 60 | 1017.9 |
| 20260905101501 | 32 | 108 | 0.0 | 4.8 | 0.00 | 0.00 | 0.00 | 59 | 1018.1 |
| 20260905101039 | 32 | 108 | 0.0 | 9.7 | 0.00 | 0.00 | 0.00 | 61 | 1018.2 |
| 20260905100509 | 32 | 109 | 1.6 | 11.3 | 0.00 | 0.00 | 0.00 | 63 | 1018.2 |
| 20260905100052 | 32 | 134 | 3.2 | 9.7 | 0.00 | 0.00 | 0.00 | 63 | 1018.2 |
| 20260905095525 | 32 | 136 | 1.6 | 8.0 | 0.00 | 0.00 | 0.00 | 63 | 1018.2 |
| 20260905095055 | 32 | 108 | 0.0 | 6.4 | 0.00 | 0.00 | 0.00 | 63 | 1018.3 |
| 20260905094527 | 32 | 119 | 0.0 | 8.0 | 0.00 | 0.00 | 0.00 | 64 | 1018.2 |
| 20260905094054 | 32 | 131 | 0.0 | 4.8 | 0.00 | 0.00 | 0.00 | 62 | 1018.2 |
| 20260905093531 | 32 | 134 | 0.0 | 4.8 | 0.00 | 0.00 | 0.00 | 61 | 1018.3 |
| 20260905093107 | 32 | 96 | 0.0 | 6.4 | 0.00 | 0.00 | 0.00 | 60 | 1018.1 |
| 20260905092536 | 32 | 108 | 0.0 | 8.0 | 0.00 | 0.00 | 0.00 | 60 | 1018.2 |
| 20260905092103 | 31 | 104 | 1.6 | 8.0 | 0.00 | 0.00 | 0.00 | 56 | 1018.1 |
| 20260905091541 | 32 | 101 | 0.0 | 3.2 | 0.00 | 0.00 | 0.00 | 57 | 1018.1 |
| 20260905091020 | 32 | 135 | 0.0 | 4.8 | 0.00 | 0.00 | 0.00 | 57 | 1018.1 |
| 20260905090549 | 31 | 108 | 0.0 | 9.7 | 0.00 | 0.00 | 0.00 | 58 | 1018.1 |
| 20260905090032 | 31 | 98 | 1.6 | 9.7 | 0.00 | 0.00 | 0.00 | 60 | 1018.1 |
| 20260905085555 | 32 | 117 | 0.0 | 6.4 | 0.00 | 0.00 | 0.00 | 60 | 1018.1 |
| 20260905085029 | 32 | 108 | 1.6 | 6.4 | 0.00 | 0.00 | 0.00 | 57 | 1018.1 |
| 20260905084558 | 32 | 99 | 0.0 | 3.2 | 0.00 | 0.00 | 0.00 | 55 | 1018.1 |
| 20260905084042 | 32 | 117 | 1.6 | 3.2 | 0.00 | 0.00 | 0.00 | 54 | 1018.1 |
| 20260905083618 | 32 | 117 | 0.0 | 3.2 | 0.00 | 0.00 | 0.00 | 55 | 1017.9 |
| 20260905083042 | 31 | 116 | 0.0 | 1.6 | 0.00 | 0.00 | 0.00 | 58 | 1018.1 |
| 20260905082507 | 31 | 111 | 0.0 | 4.8 | 0.00 | 0.00 | 0.00 | 59 | 1018.1 |
| 20260905082047 | 31 | 99 | 0.0 | 4.8 | 0.00 | 0.00 | 0.00 | 59 | 1018.1 |
| 20260905081524 | 31 | 72 | 0.0 | 4.8 | 0.00 | 0.00 | 0.00 | 57 | 1018.0 |
| 20260905081050 | 31 | 115 | 0.0 | 3.2 | 0.00 | 0.00 | 0.00 | 55 | 1017.9 |
| 20260905080521 | 31 | 115 | 0.0 | 6.4 | 0.00 | 0.00 | 0.00 | 52 | 1017.9 |
| 20260905080059 | 31 | 115 | 1.6 | 6.4 | 0.00 | 0.00 | 0.00 | 54 | 1017.9 |
| 20260905075533 | 31 | 114 | 0.0 | 0.0 | 0.00 | 0.00 | 0.00 | 53 | 1018.0 |
| 20260905075002 | 31 | 113 | 0.0 | 0.0 | 0.00 | 0.00 | 0.00 | 53 | 1017.9 |
| 20260905074547 | 31 | 114 | 0.0 | 0.0 | 0.00 | 0.00 | 0.00 | 52 | 1018.1 |
| 20260905074020 | 31 | 114 | 0.0 | 0.0 | 0.00 | 0.00 | 0.00 | 50 | 1018.0 |
| 20260905073558 | 30 | 113 | 0.0 | 1.6 | 0.00 | 0.00 | 0.00 | 49 | 1017.9 |
| 20260905073021 | 30 | 61 | 0.0 | 4.8 | 0.00 | 0.00 | 0.00 | 50 | 1017.9 |
| 20260905072559 | 30 | 47 | 0.0 | 4.8 | 0.00 | 0.00 | 0.00 | 52 | 1017.8 |
| 20260905072028 | 30 | 108 | 0.0 | 0.0 | 0.00 | 0.00 | 0.00 | 53 | 1017.8 |
| 20260905071607 | 29 | 31 | 0.0 | 1.6 | 0.00 | 0.00 | 0.00 | 55 | 1017.7 |
| 20260905071035 | 28 | 30 | 0.0 | 6.4 | 0.00 | 0.00 | 0.00 | 56 | 1017.8 |
| 20260905070504 | 28 | 32 | 1.6 | 6.4 | 0.00 | 0.00 | 0.00 | 55 | 1017.9 |
| 20260905070045 | 28 | 37 | 1.6 | 6.4 | 0.00 | 0.00 | 0.00 | 53 | 1017.8 |
| 20260905065519 | 29 | 1 | 1.6 | 3.2 | 0.00 | 0.00 | 0.00 | 53 | 1017.7 |
| 20260905065050 | 29 | 16 | 0.0 | 1.6 | 0.00 | 0.00 | 0.00 | 52 | 1017.6 |
| 20260905064528 | 28 | 15 | 0.0 | 6.4 | 0.00 | 0.00 | 0.00 | 55 | 1017.5 |
| 20260905064101 | 28 | 15 | 1.6 | 6.4 | 0.00 | 0.00 | 0.00 | 55 | 1017.7 |
| 20260905063530 | 28 | 1 | 0.0 | 4.8 | 0.00 | 0.00 | 0.00 | 52 | 1017.7 |
| 20260905063107 | 28 | 154 | 1.6 | 4.8 | 0.00 | 0.00 | 0.00 | 51 | 1017.6 |
| 20260905062536 | 28 | 161 | 1.6 | 4.8 | 0.00 | 0.00 | 0.00 | 51 | 1017.6 |
| 20260905062002 | 28 | 155 | 0.0 | 4.8 | 0.00 | 0.00 | 0.00 | 52 | 1017.6 |
| 20260905061547 | 27 | 239 | 0.0 | 4.8 | 0.00 | 0.00 | 0.00 | 53 | 1017.7 |
| 20260905061052 | 27 | 187 | 0.0 | 4.8 | 0.00 | 0.00 | 0.00 | 54 | 1017.6 |
| 20260905060521 | 26 | 179 | 1.6 | 8.0 | 0.00 | 0.00 | 0.00 | 55 | 1017.6 |
| 20260905060100 | 26 | 248 | 3.2 | 8.0 | 0.00 | 0.00 | 0.00 | 56 | 1017.6 |
| 20260905055513 | 25 | 266 | 3.2 | 8.0 | 0.00 | 0.00 | 0.00 | 56 | 1017.5 |
| 20260905055054 | 25 | 155 | 1.6 | 8.0 | 0.00 | 0.00 | 0.00 | 58 | 1017.5 |
| 20260905054527 | 24 | 240 | 0.0 | 6.4 | 0.00 | 0.00 | 0.00 | 60 | 1017.5 |
| 20260905054052 | 23 | 209 | 3.2 | 8.0 | 0.00 | 0.00 | 0.00 | 61 | 1017.6 |
| 20260905053511 | 23 | 135 | 3.2 | 8.0 | 0.00 | 0.00 | 0.00 | 61 | 1017.5 |
| 20260905053053 | 23 | 255 | 4.8 | 8.0 | 0.00 | 0.00 | 0.00 | 61 | 1017.6 |